Home > Weather > Grevenbroich > Past weeks

Flag for Germany Weather for the Past 2 Weeks in Grevenbroich, North Rhine-Westphalia, Germany

Now
39 °F

Clear.


Feels Like: 39 °F
Forecast: 41 / 65 °F
Wind: 1 mph from Northeast

Location: Duesseldorf

Current Time: May 4, 2016 at 2:04:32 AM

Latest Report: May 4, 2016 at 1:20 AM


Visibility: 10 mi

Pressure: 30.36 "Hg

Humidity: 93%

Dew Point: 37 °F

Location of GrevenbroichLocation

Historic Weather in Grevenbroich — Graph

°F

Grevenbroich Temperature Yesterday

Maximum temperature yesterday: 59 °F (at 1:20 PM)
Minimum temperature yesterday: 46 °F (at 11:20 PM)
Average temperature yesterday: 53 °F

High & Low Weather Summary for the Past Weeks

 TemperatureHumidityPressure
High68 °F (Apr 21, 3:50 PM)100% (Apr 20, 4:20 AM)30.48 "Hg (Apr 20, 4:20 AM)
Low32 °F (Apr 20, 4:50 AM)34% (Apr 20, 4:50 PM)29.50 "Hg (Apr 26, 8:20 AM)
Average47 °F73%30.04 "Hg
* Reported Apr 19 12:20 AM — May 4 12:20 AM, Grevenbroich, Weather by CustomWeather, © 2016

Note: Actual official high and low records may vary slightly from our data, if they occured in-between our weather recording intervals... More about our weather records

Advertising

Grevenbroich Weather History for the Previous 24 Hours

Scroll right to see more
 ConditionsComfort  
Time TempWeatherWind HumidityBarometerVisibility
12:20 AM
Wed, May 4
43 °FClear.2 mph87%30.36 "Hg10 mi
11:50 PM
Tue, May 3
46 °FClear.5 mph76%30.36 "Hg10 mi
11:20 PM46 °FClear.7 mph71%30.33 "Hg10 mi
10:20 PM50 °FClear.8 mph62%30.33 "Hg10 mi
9:50 PM50 °FSunny.7 mph67%30.33 "Hg10 mi
9:20 PM52 °FSunny.8 mph58%30.30 "Hg10 mi
8:50 PM52 °FSunny.9 mph58%30.30 "Hg10 mi
8:20 PM54 °FPassing clouds.12 mph54%30.27 "HgN/A
7:50 PM54 °FSunny.12 mph54%30.27 "Hg10 mi
7:20 PM55 °FSunny.10 mph47%30.27 "Hg10 mi
6:50 PM57 °FPassing clouds.13 mph44%30.24 "HgN/A
6:20 PM57 °FSunny.14 mph44%30.24 "Hg10 mi
5:50 PM57 °FSunny.15 mph48%30.24 "Hg10 mi
5:20 PM59 °FPassing clouds.13 mph48%30.24 "HgN/A
4:50 PM57 °FPassing clouds.14 mph48%30.24 "HgN/A
4:20 PM55 °FSunny.14 mph47%30.24 "Hg10 mi
3:50 PM59 °FSunny.15 mph42%30.24 "Hg10 mi
3:20 PM59 °FPassing clouds.15 mph42%30.21 "HgN/A
2:50 PM57 °FPassing clouds.15 mph48%30.21 "HgN/A
2:20 PM57 °FPassing clouds.18 mph55%30.21 "HgN/A
1:20 PM59 °FPassing clouds.18 mph51%30.18 "HgN/A
12:50 PM55 °FScattered clouds.16 mph59%30.18 "HgN/A
12:20 PM55 °FScattered clouds.13 mph63%30.18 "HgN/A
11:50 AM55 °FPassing clouds.14 mph63%30.18 "HgN/A
11:20 AM54 °FScattered clouds.15 mph67%30.18 "HgN/A
10:50 AM54 °FScattered clouds.12 mph72%30.15 "HgN/A
10:20 AM54 °FPassing clouds.12 mph77%30.15 "HgN/A
9:50 AM52 °FPassing clouds.8 mph82%30.15 "HgN/A
9:20 AM52 °FScattered clouds.9 mph82%30.15 "HgN/A
8:50 AM50 °FScattered clouds.9 mph94%30.12 "HgN/A
8:20 AM48 °FPassing clouds.9 mph94%30.12 "HgN/A
7:20 AM48 °FBroken clouds.10 mph100%30.09 "HgN/A
6:50 AM48 °FLight rain. Passing clouds.15 mph100%30.09 "HgN/A
6:20 AM52 °FLight rain. Partly cloudy.12 mph94%30.07 "Hg5 mi
5:50 AM52 °FLight rain. Mostly cloudy.10 mph94%30.07 "HgN/A
5:20 AM52 °FLight rain. Partly cloudy.9 mph88%30.07 "HgN/A
4:20 AM52 °FLight rain. Partly cloudy.7 mph82%30.07 "HgN/A
3:50 AM52 °FLight rain. Partly cloudy.7 mph82%30.07 "HgN/A
3:20 AM52 °FPartly cloudy.6 mph82%30.07 "HgN/A
2:50 AM52 °FClear.6 mph77%30.07 "Hg10 mi
2:20 AM52 °FClear.5 mph77%30.07 "Hg10 mi
Weather by CustomWeather, © 2016

See weather overviewHow to use our weather pages